Newark Heath, OH

6:57 AM EDT on August 23, 2017 (GMT -0400)
Newark Heath

Weather History for KVTA - May, 2013

Change the Weather History Date:

Friday, May 24, 2013

  Actual Average Record
Temperature  
Mean Temperature 50 °F -  
Max Temperature 57 °F 75 °F 89 °F (1965)
Min Temperature 42 °F 52 °F 32 °F (1956)
Degree Days  
Heating Degree Days 14    
Moisture  
Dew Point 37 °F    
Average Humidity 64    
Maximum Humidity 83    
Minimum Humidity 47    
Precipitation  
Precipitation 0.00 in - - ()
Sea Level Pressure  
Sea Level Pressure 30.22 in    
Wind  
Wind Speed 10 mph (NNW)    
Max Wind Speed 14 mph    
Max Gust Speed 22 mph    
Visibility 10 miles    
Events      
Averages and records for this station are not official NWS values.
T = Trace of Precipitation, MM = Missing Value Source: NWS Daily Summary

Daily Weather History Graph

Daily Weather History Graph

Search for Another Location

Airport or City:

Trip Planner

Search our weather history database for the weather conditions in past years. The results will help you decide how hot, cold, wet, or windy it might be!

Date:

Astronomy

May. 24, 2013 Rise Set
Actual Time 6:07 AM EDT 8:46 PM EDT
Civil Twilight 5:35 AM EDT 9:18 PM EDT
Nautical Twilight 4:56 AM EDT 9:57 PM EDT
Astronomical Twilight 4:11 AM EDT 10:42 PM EDT
Moon 8:27 PM EDT (5/24) 5:38 AM EDT (5/24)
Length of Visible Light 15h 42m
Length of Day
14h 39m
Full, 100% of the Moon is Illuminated
May 24
Full
May 25
Full
May 31
Last Quarter
Jun 8
New
Jun 16
First Quarter

Hourly Weather History & Observations

Time (EDT) Temp. Windchill Dew Point Humidity Pressure Visibility Wind Dir Wind Speed Gust Speed Precip Events Conditions
12:54 AM 48.0 °F - 43.0 °F 83% 30.06 in 10.0 mi NNW 13.8 mph 19.6 mph N/A   Overcast
1:54 AM 46.9 °F - 42.1 °F 83% 30.08 in 10.0 mi North 9.2 mph 16.1 mph N/A   Overcast
2:54 AM 46.9 °F - 39.9 °F 77% 30.09 in 10.0 mi North 12.7 mph 19.6 mph N/A   Overcast
3:23 AM 46.4 °F 40.4 °F 37.4 °F 71% 30.10 in 10.0 mi NNW 13.8 mph 20.7 mph N/A   Overcast
3:52 AM 46.4 °F 41.5 °F 37.4 °F 71% 30.11 in 10.0 mi North 10.4 mph 21.9 mph N/A   Overcast
3:54 AM 46.9 °F - 37.9 °F 71% 30.11 in 10.0 mi North 9.2 mph 21.9 mph N/A   Overcast
4:54 AM 45.0 °F 38.5 °F 37.0 °F 74% 30.13 in 10.0 mi NNW 13.8 mph 19.6 mph N/A   Mostly Cloudy
5:54 AM 44.1 °F 40.1 °F 36.0 °F 73% 30.15 in 10.0 mi Variable 6.9 mph - N/A   Scattered Clouds
6:54 AM 44.1 °F 40.8 °F 36.0 °F 73% 30.18 in 10.0 mi NNW 5.8 mph - N/A   Clear
7:54 AM 46.0 °F 41.0 °F 35.1 °F 66% 30.20 in 10.0 mi North 10.4 mph 18.4 mph N/A   Clear
8:29 AM 46.4 °F 41.5 °F 35.6 °F 66% 30.21 in 10.0 mi North 10.4 mph 19.6 mph N/A   Mostly Cloudy
8:54 AM 46.9 °F - 37.0 °F 68% 30.23 in 10.0 mi North 6.9 mph - N/A   Overcast
9:10 AM 46.4 °F 42.4 °F 35.6 °F 66% 30.23 in 10.0 mi North 8.1 mph - N/A   Overcast
9:54 AM 46.9 °F - 35.1 °F 63% 30.26 in 10.0 mi NNW 8.1 mph 19.6 mph N/A   Overcast
10:54 AM 50.0 °F - 36.0 °F 59% 30.27 in 10.0 mi North 9.2 mph - N/A   Overcast
11:54 AM 51.1 °F - 35.1 °F 54% 30.28 in 10.0 mi NW 9.2 mph 18.4 mph N/A   Overcast
12:54 PM 54.0 °F - 37.0 °F 53% 30.28 in 10.0 mi North 12.7 mph 17.3 mph N/A   Mostly Cloudy
1:54 PM 54.0 °F - 36.0 °F 51% 30.30 in 10.0 mi NNW 11.5 mph 20.7 mph N/A   Mostly Cloudy
2:54 PM 54.0 °F - 35.1 °F 49% 30.29 in 10.0 mi Variable 4.6 mph 20.7 mph N/A   Scattered Clouds
3:54 PM 55.0 °F - 36.0 °F 49% 30.30 in 10.0 mi North 12.7 mph 19.6 mph N/A   Partly Cloudy
4:54 PM 57.0 °F - 37.0 °F 47% 30.29 in 10.0 mi NW 13.8 mph - N/A   Clear
5:54 PM 55.9 °F - 36.0 °F 47% 30.30 in 10.0 mi NW 11.5 mph 17.3 mph N/A   Clear
6:54 PM 55.0 °F - 36.0 °F 49% 30.29 in 10.0 mi NW 6.9 mph - N/A   Clear
7:54 PM 54.0 °F - 36.0 °F 51% 30.29 in 10.0 mi North 5.8 mph - N/A   Clear
8:54 PM 50.0 °F - 36.0 °F 59% 30.29 in 10.0 mi NNE 3.5 mph - N/A   Clear
9:54 PM 48.0 °F - 36.0 °F 63% 30.29 in 10.0 mi Calm Calm - N/A   Clear
10:54 PM 46.0 °F - 36.0 °F 68% 30.32 in 10.0 mi Calm Calm - N/A   Clear
11:54 PM 42.1 °F - 37.0 °F 82% 30.34 in 10.0 mi Calm Calm - N/A   Clear